1st Responders/1st Detectors/Storm Spotters Weather Summary for Whitley County, KY

Forecast Maps


Reg. NEXRAD Animation


National Fire Danger: Day 1 & 2 Map

Current NWS Watch/Warnings

SPC Convective Day 1 Outlook


Day 2 Outlook

(Click images to enlarge|Page will refresh every 5 minutes)
UK Ag. Weather Center Desktop Severe Weather Service[HERE]
Whitley County, KY Hazardous Weather Outlook Webcast
(9 AM to 9 PM Mon-Fri)
[Fast]
[Dial-up]


UKAWC 1st Detectors/1st Responders Precision Weather Forecast For WHITLEY County, Kentucky
(based on the NWS County Digital Forecast)

ISSUED AT 18:00 UTC ON SUNDAY JUN 24 2018
DAY SUNDAY
EDT 3HR 3P 4P 5P 6P 7P
MAX/MIN -- -- -- -- 85°
TEMP 83° 85° 85° 83° 83°
SKY COVER 49% 46% 43% 39% 39%
Clouds
DEW PT 70° 68° 68° 68° 70°
RH 63% 58% 59% 60% 64%
POP 12HR -- -- -- -- --
RAIN/SNOW (liq.equ) -- -- -- -- --
SNOWFALL -- -- -- -- --
WIND SPEED(MPH) 7 7 7 7 6
WIND Gust(MPH) 8 8 7 7 7
WIND DIR W W W W W
DEW -- -- -- -- --
HeatIndex 88 88 88 87 87
Rain Showers -- -- -- -- --
Thunder Storm -- -- -- -- --
WIND CHILL -- -- -- -- --
SPRAY COND
DRY COND
LIVESTOCK HEATSTRESS 78.08 78.95 79.09 77.68 78.21



DAY MONDAY TUESDAY WEDNESDAY THURSDAY FRIDAY SATURDAY
EDT 6HR 8P 9P 10P 11P MIDN 1A 2A 3A 4A 5A 6A 7A 8A 9A 10A 11A NOON 1P 2P 3P 4P 5P 6P 7P 8P 9P 10P 11P MIDN 1A 2A 5A 8A 11A 2P 5P 8P 2A 8A 2P 8P 2A 8A 2P 8P 2A 8A 2P 8P 2A 8A 2P 8P
MAX/MIN -- -- -- -- -- -- -- -- -- -- -- -- 67° -- -- -- -- -- -- -- -- -- -- 85° -- -- -- -- -- -- -- -- 67° -- -- 86° -- -- 70° 85° -- -- 68° 90° -- -- 70° 92° -- -- 70° 92° --
TEMP 81° 77° 74° 72° 70° 68° 68° 68° 67° 67° 67° 68° 70° 72° 74° 76° 79° 81° 81° 83° 85° 85° 83° 81° 79° 76° 74° 72° 70° 70° 68° 67° 72° 81° 85° 85° 81° 72° 72° 85° 77° 70° 70° 88° 81° 70° 72° 90° 85° 72° 74° 90° 83°
SKY COVER 41% 45% 52% 57% 60% 64% 68% 71% 74% 77% 77% 77% 78% 77% 76% 76% 75% 75% 74% 75% 78% 79% 76% 69% 65% 63% 57% 54% 56% 60% 62% 64% 63% 55% 62% 59% 59% 60% 59% 65% 56% 45% 40% 40% 47% 33% 32% 38% 37% 26% 30% 48% 43%
Clouds
DEW PT 70° 70° 68° 68° 67° 67° 67° 67° 67° 67° 67° 67° 67° 68° 70° 70° 70° 70° 70° 70° 70° 70° 70° 70° 70° 68° 68° 67° 67° 67° 67° 65° 68° 70° 70° 70° 72° 68° 70° 72° 70° 68° 70° 72° 72° 70° 70° 72° 72° 70° 70° 70° 72°
RH 69% 76% 81% 89% 92% 96% 96% 96% 100% 100% 100% 96% 92% 90% 84% 79% 73% 69% 67% 62% 60% 60% 62% 66% 73% 76% 81% 83% 90% 90% 93% 93% 90% 71% 61% 60% 71% 90% 90% 65% 79% 96% 96% 60% 74% 96% 96% 55% 67% 90% 90% 52% 69%
POP 12HR 24% -- -- -- -- -- -- -- -- -- -- -- 45% -- -- -- -- -- -- -- -- -- -- -- 50% -- -- -- -- -- -- -- 21% -- -- -- 33% -- 36% -- 56% -- 43% -- 14% -- 12% -- 12% -- 11% -- 13%
RAIN/SNOW (liq.equ) 0.00in -- -- -- -- -- 0.01in -- -- -- -- -- 0.08in -- -- -- -- -- 0.17in -- -- -- -- -- 0.11in -- -- -- -- -- 0.04in -- 0.00in -- 0.02in -- 0.02in -- -- -- -- -- -- -- -- -- -- -- -- -- -- -- --
SNOWFALL 0in -- -- -- -- -- 0in -- -- -- -- -- 0in -- -- -- -- -- 0in -- -- -- -- -- 0in -- -- -- -- -- 0in -- 0in -- 0in -- 0in -- -- -- -- -- -- -- -- -- -- -- -- -- -- -- --
WIND SPEED(MPH) 5 2 1 0 0 0 0 1 1 1 1 1 2 2 2 2 5 5 6 6 5 5 5 5 5 2 2 1 1 0 0 0 1 2 2 2 5 5 6 9 8 5 5 7 6 1 2 2 2 0 1 2 2
WIND DIR W W SW SW S S SE S S S S S S S S S SW SW W W W W NW N N N NE NE NE E E E S S SW SW S S S SW SW S SW W W S S W SW S S E W
HeatIndex 86 77 74 72 70 68 68 68 67 67 67 68 70 72 74 76 79 84 85 88 89 89 88 85 79 76 74 72 70 70 68 67 72 85 91 91 86 72 72 90 77 70 70 95 85 70 72 97 91 72 74 97 88
Rain Showers -- -- -- Slight Chance Slight Chance Chance Chance Chance Chance Chance Chance Chance Chance Chance Chance Chance Chance Chance Chance Chance Chance Chance Chance Chance Slight Chance Slight Chance Slight Chance -- -- -- -- -- -- Slight Chance Chance Chance Chance Chance Chance Likely Chance Slight Chance -- -- -- -- -- -- -- -- -- -- --
Thunder Storm -- -- -- Slight Chance Slight Chance Chance Chance Chance Chance Chance Chance Chance Chance Chance Chance Chance Chance Chance Chance Chance Chance Slight Chance Slight Chance -- -- -- -- -- -- -- -- -- -- Slight Chance Chance Chance Chance Chance Chance Likely Chance Slight Chance -- -- -- -- -- -- -- -- -- -- --
WIND CHILL -- -- -- -- -- -- -- -- -- -- -- -- -- -- -- -- -- -- -- -- -- -- -- -- -- -- -- -- -- -- -- -- -- -- -- -- -- -- -- -- -- -- -- -- -- -- -- -- -- -- -- -- --
SPRAY COND
DRY COND
LIVESTOCK HEATSTRESS 77.21 74.60 72.41 71.20 69.51 67.80 67.80 67.80 67.00 67.00 67.00 67.80 69.51 71.27 72.66 74.01 76.00 77.21 76.97 77.94 79.24 79.24 77.94 76.85 76.00 73.73 72.41 70.77 69.38 69.38 67.65 66.68 71.27 77.46 79.38 79.24 77.46 71.27 71.27 79.96 74.90 69.75 69.75 81.58 77.83 69.75 71.71 82.28 80.24 71.27 73.16 81.76 78.87

Click on individual weather variable above in left-hand column (ie., TEMP, RH, QPF 12HR) to view state forecast maps






NWS 48 Hr. Forecast Maps,

Regional Hourly Observations For WHITLEY County, Kentucky
Issued at 200 PM EDT SUN JUN 24 2018
...EASTERN KENTUCKY...
  
CITY           SKY/WX    TMP DP  RH WIND       PRES   REMARKS
JACKSON          N/A     85  72  65 VRB6      30.00S HX  91           
6HR MIN TEMP:  72; 6HR MAX TEMP:  85; 6HR PCP: TRACE;                

LONDON           N/A     84  72  67 W9        30.00F                  
6HR MIN TEMP:  71; 6HR MAX TEMP:  85;                                

SOMERSET*        N/A     84  68  58 W10G16    30.00F                  
MONTICELLO*    PTSUNNY   86  72  62 W10G17      N/A  HX  92           
6HR MIN TEMP:  75; 6HR MAX TEMP:  87;                                

WILLIAMSBURG*    N/A     86  72  62 W6        30.01S HX  92           
MIDDLESBORO*     N/A     89  67  49 SW9       30.01S HX  92           
6HR MIN TEMP:  70; 6HR MAX TEMP:  89;                                

HARLAN APT*    MOCLDY    83  69  60 W9        30.02S                  
PIKE CO APT*     N/A     81  71  71 W9        30.00F                  
BIG SANDY APT*   N/A     84  69  60 W7        29.99S                  
6HR MIN TEMP:  71; 6HR MAX TEMP:  84;                                

MOREHEAD APT*    N/A     82  68  61 VRB7      30.00S                  
ASHLAND*         N/A     82  68  62 VRB6      29.95F                  


Current NOWCAST not available:
Nowcasts are not issued routinely during fair weather. Only when
precipitation or other significant weather is occuring in this county will these
forecasts be issued. Currently, there is no short term forecast in effect.


Fire Weather Forecast For WHITLEY County, KY
Provided by the National Weather Service:

Issued at: Sun Jun 24 14:05:01 EDT 2018


                      Today        Tonight      Mon          

Cloud Cover           PCldy        PCldy        MCldy        
Chance precip (%)     40           40           50           
Precip type           tstms        tstms        tstms        
Temp (24H TREND)      84-87 (+4)   63-69 (+2)   83-86        
Rh % (24H TREND)      54-57 (+4)   90-100 (+1)  57-60        
20ftwnd-AM(mph)       SW 3-7                    Lgt/Var      
20ftwnd-PM(mph)       W 4-8        Lgt/Var      W 2-6        
Precip duration       1            1            1            
Precip begin                                                 
Precip end                                                   
Precip amount         0.08         0.09         0.35         
LAL                   3            3            3            
Haines Index (MID)    3                         3            
Mixing hgt(ft-AGL)    6100                      4700         
Transport wnd (mph)   W 16                      N  8         
Vent rate (kt-ft)     84336                     31250        
ADI Early             53 Gen Good  5 Very Poor  21 Fair      
ADI Late              65 Good      14 Gen Poor  25 Fair      
Max LVORI Early       7            7            5            
Max LVORI Late        3            8            3            

REMARKS...RANGES OF MIN T EXCEEDING 8 DEGREES & RANGES OF MAX RH        
EXCEEDING 10% INDICATE THE LIKELIHOOD OF THERMAL BELTS. ADI IS        
ATMOSPHERIC DISPERSION INDEX BY LAVDAS. DISPERSION INDEX IS        
MAGNITUDE OF VENT RATE DIVIDED BY 1000.


SPC's Fire Weather Web Tool (Excellent!), SPC's Fire Weather Outlooks, NWS Fire Weather WEB, Fire Danger Class Map,
Keetch-Byram Drought Index, ROMAN Web, Haines Index ,
WFAS's 10-hr Dead Fuel Moist., WFAS's 100-hr Dead Fuel Moist., Probablity of Ignition, Visual blackness Map, Palmer Drought Index, HPC's Rainfall Forecast Maps


Hazardous Weather Outlook For WHITLEY County, Kentucky
1030 AM EDT Sun Jun 24 2018

 DAY ONE  Today and Tonight.

A stray thunderstorm or two is possible this afternoon and
evening. A better chance for storms will occur late tonight with a
potential for heavy rainfall and gusty winds. 

 DAYS TWO THROUGH SEVEN  Monday through Saturday.

Some locales may experience heat indices in excess of 100 degrees
Thursday through Saturday.

Thunderstorms will be possible at times from Tuesday through 
Thursday morning, and again Saturday afternoon.

 SPOTTER INFORMATION STATEMENT  

Spotter activation is not anticipated.

Latest WHITLEY County, Kentucky Watches, Warnings and Advisories.
Additional Drought Info.: UKAWC Drought Page, Kentucky Drought Watch


7-Day Forecast For WHITLEY County, KY

REST OF TODAY
Warm. Mostly cloudy early then becoming partly cloudy. Highs in the upper 80s. Light winds.

TONIGHT
Mostly cloudy. A slight chance of showers and thunderstorms in the evening, then a chance of showers and thunderstorms. Lows in the upper 60s. Light winds. Chance of rain 50 percent.

MONDAY
Warm. Mostly cloudy with a 50 percent chance of showers and thunderstorms. Highs in the upper 80s. Light winds.

MONDAY NIGHT
Mostly cloudy. A 20 percent chance of showers in the evening. Lows in the upper 60s. Light winds.

TUESDAY
Partly sunny. A slight chance of showers and thunderstorms in the morning, then a chance of showers and thunderstorms in the afternoon. Highs in the upper 80s. Light winds. Chance of rain 30 percent.

TUESDAY NIGHT
Mostly cloudy with a 40 percent chance of showers and thunderstorms. Lows in the upper 60s.

WEDNESDAY
Partly sunny with showers and thunderstorms likely. Highs in the mid 80s. Chance of rain 60 percent.

WEDNESDAY NIGHT
Partly cloudy with a 50 percent chance of showers and thunderstorms. Lows in the upper 60s.

THURSDAY
Mostly sunny. Highs in the lower 90s.

THURSDAY NIGHT
Partly cloudy. Lows around 70.

FRIDAY
Hot. Mostly sunny. Highs in the lower 90s.

FRIDAY NIGHT
Partly cloudy. Lows in the lower 70s.

SATURDAY
Hot. Mostly sunny. Highs in the lower 90s.

Ag Weather Center, Department of Biosystems & Agricultural Engineering, University of Kentucky